Flag for France Weather past 2 weeks in Gustavia, Saint Barthélemy, France

Now
82 °F

Passing clouds.


Feels Like: 89 °F
Forecast: 80 / 85 °F
Wind: 7 mph from South

Location: Juliana Airport - Saint Maarten

Current Time: Apr 27, 2015 at 9:07:34 PM

Latest Report: Apr 27, 2015 at 8:00 PM


Visibility: N/A

Pressure: 29.95 "Hg

Humidity: 79%

Dew point: 75 °F

Location of GustaviaLocation

Historic Weather in Gustavia — Graph

°F

Gustavia temperature yesterday

Maximum temperature yesterday: 86 °F (at 12:00 PM)
Minimum temperature yesterday: 79 °F (at 4:00 AM)
Average temperature yesterday: 82 °F

Past Weeks' High & Low Weather Summary

 TemperatureHumidityPressure
High86 °F (Apr 16, 2:00 PM)89% (Apr 17, 5:00 AM)30.15 "Hg (Apr 17, 5:00 AM)
Low73 °F (Apr 13, 4:00 AM)51% (Apr 21, 11:00 AM)29.89 "Hg (Apr 27, 4:00 PM)
Average80 °F73%30.02 "Hg
* Reported Apr 12 8:00 PM — Apr 27 8:00 PM, Gustavia, Weather by CustomWeather, © 2015

Note: Actual official high and low records may vary slightly from our data, if they occured in-between our weather recording intervals... More about our weather records

Advertising

Gustavia weather history for previous 24 hours

 ConditionsComfort  
Time TempWeatherWind HumidityBarometerVisibility
8:00 PM
Mon, Apr 27
82 °FPassing clouds.7 mph79%29.95 "HgN/A
7:00 PM82 °FPassing clouds.9 mph79%29.92 "HgN/A
6:00 PM82 °FPassing clouds.8 mph79%29.92 "HgN/A
5:00 PM84 °FPassing clouds.10 mph74%29.92 "HgN/A
4:00 PM86 °FPassing clouds.12 mph70%29.89 "HgN/A
3:00 PM86 °FPassing clouds.13 mph70%29.92 "HgN/A
2:00 PM86 °FPassing clouds.15 mph70%29.92 "HgN/A
1:00 PM86 °FPassing clouds.14 mph70%29.95 "HgN/A
12:00 PM84 °FPassing clouds.10 mph74%29.95 "HgN/A
11:00 AM84 °FScattered clouds.10 mph74%29.98 "HgN/A
10:00 AM84 °FScattered clouds.10 mph74%29.98 "HgN/A
9:00 AM82 °FScattered clouds.9 mph74%30.01 "HgN/A
8:00 AM82 °FPassing clouds.9 mph74%29.98 "HgN/A
7:00 AM81 °FPassing clouds.8 mph79%29.98 "HgN/A
6:00 AM79 °FPassing clouds.8 mph84%29.95 "HgN/A
5:00 AM79 °FPassing clouds.8 mph84%29.92 "HgN/A
2:00 AM79 °FPassing clouds.2 mph84%29.92 "HgN/A
1:00 AM79 °FPassing clouds.2 mph84%29.95 "HgN/A
12:00 AM79 °FPassing clouds.2 mph79%29.98 "HgN/A
11:00 PM
Sun, Apr 26
81 °FPassing clouds.2 mph74%29.98 "HgN/A
10:00 PM81 °FPassing clouds.1 mph79%29.98 "HgN/A
9:00 PM81 °FPassing clouds.No wind79%29.98 "HgN/A
Weather by CustomWeather, © 2015

See weather overviewHow to use our weather pages